When you browse on this site, cookies collect data to enhance your experience and personalize the content and advertising you see.
Visit our Privacy Policy to learn more. By continuing to use the site, you agree to this use of cookies and data.
  • En España
  • Lista de países
  • Para 7 días
  • Temperatura del agua
  • El tiempo en el mapa
  • Informadores
  • user-avatar
    Iniciar sesión

    Tiempo cada hora Barcelona

    Hoy, 28 Mayo, Jueves

    Tiempo Temperatura Precipitaciones Viento Presión Humedad
    00:00 +28°C° 0 mm 1 mps 759 mmHg 79%
    01:00 +27°C° 0 mm 1 mps 758 mmHg 81%
    02:00 +27°C° 0 mm 1 mps 758 mmHg 83%
    03:00 +27°C° 0 mm 1 mps 758 mmHg 84%
    04:00 +26°C° 0 mm 1 mps 758 mmHg 84%
    05:00 +26°C° 0 mm 1 mps 758 mmHg 85%
    06:00 +28°C° 0 mm 1 mps 759 mmHg 79%
    07:00 +29°C° 0 mm 1 mps 759 mmHg 73%
    08:00 +30°C° 0 mm 1 mps 759 mmHg 67%
    09:00 +33°C° 0 mm 1 mps 760 mmHg 59%
    10:00 +35°C° 0 mm 1 mps 760 mmHg 52%
    11:00 +37°C° 0 mm 1 mps 760 mmHg 45%
    12:00 +37°C° 0 mm 2 mps 759 mmHg 48%
    13:00 +36°C° 0 mm 2 mps 758 mmHg 52%
    14:00 +35°C° 0 mm 3 mps 757 mmHg 55%
    15:00 +35°C° 0.1 mm 3 mps 757 mmHg 56%
    16:00 +34°C° 0.1 mm 3 mps 757 mmHg 56%
    17:00 +34°C° 0.1 mm 3 mps 756 mmHg 57%
    18:00 +33°C° 0 mm 3 mps 757 mmHg 63%
    19:00 +30°C° 0 mm 3 mps 757 mmHg 68%
    20:00 +29°C° 0 mm 4 mps 757 mmHg 74%
    21:00 +29°C° 0 mm 3 mps 758 mmHg 75%
    22:00 +28°C° 0 mm 3 mps 759 mmHg 77%
    23:00 +28°C° 0 mm 2 mps 759 mmHg 78%

    Mañana, 29 Mayo, Viernes

    Tiempo Temperatura Precipitaciones Viento Presión Humedad
    00:00 +28°C° 0 mm 2 mps 759 mmHg 79%
    01:00 +27°C° 0 mm 2 mps 758 mmHg 80%
    02:00 +27°C° 0 mm 2 mps 758 mmHg 81%
    03:00 +27°C° 0 mm 1 mps 758 mmHg 82%
    04:00 +26°C° 0 mm 1 mps 758 mmHg 83%
    05:00 +26°C° 0 mm 1 mps 758 mmHg 83%
    06:00 +27°C° 0 mm 1 mps 758 mmHg 77%
    07:00 +29°C° 0 mm 1 mps 759 mmHg 70%
    08:00 +30°C° 0 mm 2 mps 759 mmHg 63%
    09:00 +34°C° 0 mm 2 mps 759 mmHg 55%
    10:00 +36°C° 0 mm 2 mps 759 mmHg 47%
    11:00 +38°C° 0 mm 2 mps 759 mmHg 38%
    12:00 +38°C° 0 mm 2 mps 758 mmHg 39%
    13:00 +38°C° 0 mm 3 mps 758 mmHg 40%
    14:00 +38°C° 0 mm 3 mps 757 mmHg 40%
    15:00 +37°C° 0 mm 3 mps 757 mmHg 45%
    16:00 +36°C° 0 mm 4 mps 756 mmHg 49%
    17:00 +34°C° 0 mm 4 mps 756 mmHg 53%
    18:00 +33°C° 0 mm 4 mps 757 mmHg 61%
    19:00 +30°C° 0 mm 4 mps 757 mmHg 68%
    20:00 +28°C° 0 mm 4 mps 758 mmHg 76%
    21:00 +28°C° 0 mm 3 mps 758 mmHg 77%
    22:00 +28°C° 0 mm 3 mps 759 mmHg 79%
    23:00 +28°C° 0 mm 2 mps 759 mmHg 81%

    Pasado mañana, 30 Mayo, Sábado

    Tiempo Temperatura Precipitaciones Viento Presión Humedad
    00:00 +27°C° 0 mm 2 mps 759 mmHg 79%
    01:00 +27°C° 0 mm 2 mps 759 mmHg 77%
    02:00 +27°C° 0 mm 1 mps 759 mmHg 76%
    03:00 +27°C° 0 mm 1 mps 759 mmHg 76%
    04:00 +27°C° 0 mm 2 mps 759 mmHg 76%
    05:00 +27°C° 0 mm 2 mps 758 mmHg 77%
    06:00 +28°C° 0 mm 2 mps 759 mmHg 71%
    07:00 +30°C° 0 mm 2 mps 759 mmHg 65%
    08:00 +31°C° 0 mm 2 mps 759 mmHg 59%
    09:00 +34°C° 0 mm 2 mps 759 mmHg 52%
    10:00 +37°C° 0 mm 2 mps 759 mmHg 45%
    11:00 +39°C° 0 mm 2 mps 759 mmHg 39%
    12:00 +37°C° 0 mm 3 mps 758 mmHg 45%
    13:00 +35°C° 0 mm 3 mps 758 mmHg 51%
    14:00 +34°C° 0 mm 4 mps 757 mmHg 58%
    15:00 +33°C° 0.1 mm 4 mps 757 mmHg 60%
    16:00 +33°C° 0.1 mm 4 mps 756 mmHg 63%
    17:00 +32°C° 0.1 mm 4 mps 756 mmHg 65%
    18:00 +30°C° 0.5 mm 4 mps 757 mmHg 71%
    19:00 +29°C° 0.5 mm 4 mps 757 mmHg 77%
    20:00 +28°C° 0.5 mm 5 mps 758 mmHg 83%
    21:00 +28°C° 0.6 mm 4 mps 758 mmHg 85%
    22:00 +27°C° 0.6 mm 3 mps 759 mmHg 86%
    23:00 +27°C° 0.6 mm 3 mps 759 mmHg 87%

    31 Mayo, Domingo

    Tiempo Temperatura Precipitaciones Viento Presión Humedad
    00:00 +26°C° 0.7 mm 2 mps 759 mmHg 88%
    01:00 +26°C° 0.7 mm 2 mps 758 mmHg 89%
    02:00 +26°C° 0.7 mm 1 mps 758 mmHg 91%
    03:00 +26°C° 0.6 mm 1 mps 758 mmHg 90%
    04:00 +26°C° 0.6 mm 1 mps 758 mmHg 89%
    05:00 +27°C° 0.6 mm 1 mps 758 mmHg 88%
    06:00 +27°C° 0 mm 1 mps 759 mmHg 86%
    07:00 +28°C° 0 mm 1 mps 759 mmHg 84%
    08:00 +26°C° 0 mm 0 mps 759 mmHg 82%
    09:00 +30°C° 0 mm 1 mps 759 mmHg 74%
    10:00 +32°C° 0 mm 1 mps 760 mmHg 66%
    11:00 +33°C° 0 mm 1 mps 760 mmHg 59%
    12:00 +34°C° 0 mm 1 mps 759 mmHg 55%
    13:00 +36°C° 0 mm 2 mps 758 mmHg 52%
    14:00 +37°C° 0 mm 3 mps 758 mmHg 49%
    15:00 +35°C° 0.5 mm 3 mps 757 mmHg 55%
    16:00 +34°C° 0.5 mm 3 mps 757 mmHg 60%
    17:00 +33°C° 0.5 mm 3 mps 757 mmHg 65%
    18:00 +30°C° 0.5 mm 3 mps 757 mmHg 72%
    19:00 +29°C° 0.5 mm 4 mps 757 mmHg 79%
    20:00 +28°C° 0.5 mm 5 mps 758 mmHg 86%
    21:00 +27°C° 0.1 mm 4 mps 758 mmHg 88%
    22:00 +27°C° 0.1 mm 4 mps 759 mmHg 89%
    23:00 +27°C° 0.1 mm 3 mps 759 mmHg 90%

    1 Junio, Lunes

    Tiempo Temperatura Precipitaciones Viento Presión Humedad
    00:00 +27°C° 0.3 mm 2 mps 759 mmHg 90%
    01:00 +26°C° 0.3 mm 2 mps 758 mmHg 90%
    02:00 +26°C° 0.3 mm 1 mps 758 mmHg 91%
    03:00 +26°C° 0.1 mm 1 mps 758 mmHg 90%
    04:00 +26°C° 0.1 mm 1 mps 758 mmHg 90%
    05:00 +26°C° 0.1 mm 1 mps 758 mmHg 89%
    06:00 +27°C° 0 mm 1 mps 759 mmHg 84%
    07:00 +28°C° 0 mm 1 mps 759 mmHg 79%
    08:00 +29°C° 0 mm 1 mps 759 mmHg 74%
    09:00 +32°C° 0 mm 2 mps 760 mmHg 65%
    10:00 +35°C° 0 mm 2 mps 760 mmHg 55%
    11:00 +37°C° 0 mm 2 mps 760 mmHg 45%
    12:00 +36°C° 0.1 mm 2 mps 759 mmHg 50%
    13:00 +35°C° 0.1 mm 3 mps 758 mmHg 54%
    14:00 +34°C° 0.1 mm 3 mps 757 mmHg 58%
    15:00 +34°C° 0.1 mm 3 mps 757 mmHg 58%
    16:00 +34°C° 0.1 mm 3 mps 757 mmHg 58%
    17:00 +34°C° 0.1 mm 4 mps 756 mmHg 57%
    18:00 +32°C° 0 mm 4 mps 757 mmHg 64%
    19:00 +30°C° 0 mm 4 mps 757 mmHg 70%
    20:00 +29°C° 0 mm 5 mps 758 mmHg 76%
    21:00 +28°C° 0 mm 4 mps 758 mmHg 79%
    22:00 +28°C° 0 mm 4 mps 759 mmHg 81%
    23:00 +27°C° 0 mm 3 mps 759 mmHg 84%

    2 Junio, Martes

    Tiempo Temperatura Precipitaciones Viento Presión Humedad
    00:00 +27°C° 0 mm 3 mps 759 mmHg 85%
    01:00 +27°C° 0 mm 3 mps 758 mmHg 86%
    02:00 +27°C° 0 mm 3 mps 758 mmHg 87%
    03:00 +26°C° 0 mm 2 mps 758 mmHg 86%
    04:00 +26°C° 0 mm 1 mps 758 mmHg 85%
    05:00 +26°C° 0 mm 1 mps 758 mmHg 84%
    06:00 +27°C° 0 mm 1 mps 759 mmHg 78%
    07:00 +28°C° 0 mm 1 mps 759 mmHg 72%
    08:00 +29°C° 0 mm 1 mps 759 mmHg 66%
    09:00 +32°C° 0 mm 1 mps 759 mmHg 59%
    10:00 +34°C° 0 mm 1 mps 760 mmHg 51%
    11:00 +36°C° 0 mm 1 mps 760 mmHg 44%
    12:00 +37°C° 0 mm 2 mps 759 mmHg 45%
    13:00 +36°C° 0 mm 3 mps 758 mmHg 47%
    14:00 +36°C° 0 mm 3 mps 757 mmHg 49%
    15:00 +35°C° 0 mm 4 mps 757 mmHg 52%
    16:00 +34°C° 0 mm 4 mps 756 mmHg 55%
    17:00 +33°C° 0 mm 4 mps 756 mmHg 58%
    18:00 +32°C° 0 mm 4 mps 756 mmHg 64%
    19:00 +30°C° 0 mm 4 mps 757 mmHg 69%
    20:00 +28°C° 0 mm 5 mps 757 mmHg 75%
    21:00 +28°C° 0 mm 4 mps 758 mmHg 78%
    22:00 +28°C° 0 mm 3 mps 758 mmHg 80%
    23:00 +27°C° 0 mm 3 mps 759 mmHg 83%
    Mostrar más